Concord, NH

10:34 AM EDT on October 17, 2017 (GMT -0400)
Concord Municipal

Weather History for KCON - September, 2012

Change the Weather History Date:

Tuesday, September 18, 2012

  Actual Average Record
Temperature  
Mean Temperature 60 °F 59 °F  
Max Temperature 71 °F 72 °F 91 °F (1955)
Min Temperature 49 °F 47 °F 29 °F (1868)
Degree Days  
Heating Degree Days 5 7  
Month to date heating degree days 58 77  
Since 1 July heating degree days 64 125  
Cooling Degree Days 0 1  
Month to date cooling degree days 38 31  
Year to date cooling degree days 568 444  
Growing Degree Days 10 (Base 50)    
Moisture  
Dew Point 60 °F    
Average Humidity 92    
Maximum Humidity 100    
Minimum Humidity 84    
Precipitation  
Precipitation 0.63 in 0.12 in 2.42 in (2004)
Month to date precipitation 1.57 1.91  
Year to date precipitation 28.54 28.18  
Snow  
Snow 0.00 in 0.00 in 0.00 in (2002)
Month to date snowfall 0.0 0.0  
Since 1 July snowfall 0.0 0.0  
Since 1 September snowfall 0.0 0.0  
Snow Depth 0.00 in    
Sea Level Pressure  
Sea Level Pressure 29.85 in    
Wind  
Wind Speed 8 mph (SSE)    
Max Wind Speed 25 mph    
Max Gust Speed 36 mph    
Visibility 8 miles    
Events Rain    
T = Trace of Precipitation, MM = Missing Value Source: NWS Daily Summary

Daily Weather History Graph

Daily Weather History Graph

Search for Another Location

Airport or City:

Trip Planner

Search our weather history database for the weather conditions in past years. The results will help you decide how hot, cold, wet, or windy it might be!

Date:

Astronomy

Sep. 18, 2012 Rise Set
Actual Time 6:29 AM EDT 6:49 PM EDT
Civil Twilight 6:00 AM EDT 7:18 PM EDT
Nautical Twilight 5:27 AM EDT 7:51 PM EDT
Astronomical Twilight 4:52 AM EDT 8:26 PM EDT
Moon 9:32 AM EDT (9/18) 8:03 PM EDT (9/18)
Length of Visible Light 13h 17m
Length of Day
12h 20m
Waxing Crescent, 9% of the Moon is Illuminated
Sep 18
Waxing Crescent
Sep 22
First Quarter
Sep 29
Full
Oct 8
Last Quarter
Oct 15
New

Hourly Weather History & Observations

Time (EDT) Temp. Dew Point Humidity Pressure Visibility Wind Dir Wind Speed Gust Speed Precip Events Conditions
12:51 AM 51.1 °F 50.0 °F 96% 30.04 in 10.0 mi Calm Calm - N/A   Clear
1:51 AM 52.0 °F 50.0 °F 93% 30.04 in 10.0 mi Calm Calm - N/A   Clear
2:51 AM 50.0 °F 48.0 °F 93% 30.04 in 10.0 mi Calm Calm - N/A   Clear
3:51 AM 51.1 °F 48.9 °F 92% 30.02 in 10.0 mi Calm Calm - N/A   Clear
4:51 AM 50.0 °F 48.9 °F 96% 30.01 in 10.0 mi Calm Calm - N/A   Clear
5:51 AM 50.0 °F 48.0 °F 93% 30.01 in 10.0 mi Calm Calm - N/A   Clear
6:51 AM 50.0 °F 48.9 °F 96% 30.01 in 5.0 mi Calm Calm - N/A   Clear
7:51 AM 54.0 °F 53.1 °F 97% 30.01 in 5.0 mi Calm Calm - N/A   Clear
8:51 AM 59.0 °F 55.9 °F 90% 30.01 in 10.0 mi SSE 6.9 mph - N/A   Clear
9:51 AM 62.6 °F 57.2 °F 82% 29.99 in 10.0 mi SSE 8.1 mph - N/A Rain Light Rain
10:51 AM 64.9 °F 57.9 °F 78% 29.96 in 10.0 mi SSE 5.8 mph 16.1 mph 0.00 in Rain Light Rain
11:49 AM 64.4 °F 59.0 °F 83% 29.93 in 10.0 mi ESE 5.8 mph - 0.01 in Rain Light Rain
11:51 AM 64.9 °F 59.0 °F 81% 29.94 in 10.0 mi ESE 4.6 mph - 0.01 in Rain Light Rain
12:51 PM 64.9 °F 61.0 °F 87% 29.90 in 10.0 mi ESE 8.1 mph - 0.01 in Rain Light Rain
1:51 PM 66.0 °F 61.0 °F 84% 29.86 in 9.0 mi SE 8.1 mph 16.1 mph 0.01 in Rain Light Rain
2:51 PM 66.0 °F 62.1 °F 87% 29.83 in 10.0 mi ESE 9.2 mph - 0.00 in Rain Light Rain
3:37 PM 66.2 °F 62.6 °F 88% 29.80 in 1.8 mi SE 10.4 mph 17.3 mph 0.04 in Rain Rain
3:48 PM 66.2 °F 64.4 °F 94% 29.80 in 3.0 mi SSE 11.5 mph 21.9 mph 0.06 in Rain Light Rain
3:51 PM 66.0 °F 64.0 °F 93% 29.80 in 4.0 mi SE 9.2 mph 21.9 mph 0.06 in Rain Light Rain
4:51 PM 66.9 °F 64.0 °F 90% 29.76 in 8.0 mi SSE 12.7 mph 20.7 mph 0.00 in Rain Light Rain
5:51 PM 68.0 °F 64.9 °F 90% 29.75 in 5.0 mi SSE 11.5 mph 21.9 mph 0.02 in Rain Light Rain
6:11 PM 68.0 °F 64.4 °F 88% 29.74 in 2.0 mi SSE 17.3 mph 26.5 mph 0.02 in Rain Light Rain
6:24 PM 68.0 °F 66.2 °F 94% 29.74 in 5.0 mi SSE 11.5 mph 20.7 mph 0.03 in Rain Light Rain
6:51 PM 68.0 °F 66.0 °F 93% 29.73 in 10.0 mi SSE 11.5 mph 17.3 mph 0.03 in Rain Light Rain
7:51 PM 70.0 °F 66.0 °F 87% 29.71 in 10.0 mi SSE 17.3 mph 25.3 mph 0.01 in Rain Light Rain
8:14 PM 69.8 °F 66.2 °F 88% 29.70 in 10.0 mi SSE 10.4 mph 24.2 mph 0.00 in   Overcast
8:41 PM 71.6 °F 64.4 °F 78% 29.69 in 10.0 mi SSE 18.4 mph 32.2 mph 0.00 in   Overcast
8:51 PM 71.1 °F 64.9 °F 81% 29.68 in 10.0 mi SSE 21.9 mph 32.2 mph 0.00 in   Overcast
9:51 PM 69.1 °F 66.9 °F 93% 29.66 in 4.0 mi SSE 16.1 mph 25.3 mph 0.02 in Rain Light Rain
10:51 PM 69.1 °F 66.9 °F 93% 29.65 in 7.0 mi SSE 19.6 mph 25.3 mph 0.11 in Rain Light Rain
11:34 PM 69.8 °F 68.0 °F 94% 29.65 in 5.0 mi South 19.6 mph 27.6 mph N/A Rain Rain
11:51 PM 69.1 °F 68.0 °F 96% 29.65 in 6.0 mi SSE 16.1 mph 23.0 mph 0.15 in Rain Rain